Date String (YYYY-MM-DD hh:mm:ss) UTC,Instrument flags,Ambient pressure (hPa),Sample flow (lpm),Bypass flow (lpm),Sample temperature (°C),Ambient temperature (°C),ASC tube jacket temperature (°C),LED temperature (°C),Box temperature (°C),Sample RH (%),Span deviation,Mass concentration (μg/m³),Mass concentration (μg/m³),Mass concentration (μg/m³)
DateTimeUTC,F1_M11,P_M11,Q1_M11,Q2_M11,T1_M11,T2_M11,T3_M11,T4_M11,T5_M11,U1_M11,ZSPAN_M11,X0_M11,X2_M11,X1_M11
2022-08-17 12:00:00,,0832.8,5.00,0.00,29.8,28.5,00.0,38.7,31.5,30.2,0000.0,0010.04,0005.89,0005.11
2022-08-17 12:01:00,,0832.8,5.00,0.00,29.8,28.5,00.0,38.7,31.5,30.1,0000.0,0009.87,0005.84,0005.09
2022-08-17 12:02:00,,0832.9,5.00,0.00,29.7,28.5,00.0,38.7,31.5,30.0,0000.0,0009.64,0005.84,0005.11
2022-08-17 12:03:00,,0832.9,4.99,0.00,29.7,28.5,00.0,38.7,31.5,30.0,0000.0,0009.66,0005.85,0005.12
2022-08-17 12:04:00,,0833.0,5.00,0.00,29.7,28.5,00.0,38.6,31.4,30.4,0000.0,0009.63,0005.83,0005.13
2022-08-17 12:05:00,,0833.0,5.00,0.00,29.7,28.5,00.0,38.6,31.4,31.1,0000.0,0009.98,0005.88,0005.18
2022-08-17 12:06:00,,0833.1,4.99,0.00,29.7,28.5,00.0,38.6,31.5,31.2,0000.0,0010.00,0005.95,0005.25
2022-08-17 12:07:00,,0833.0,5.01,0.00,29.7,28.5,00.0,38.6,31.5,31.2,0000.0,0010.13,0006.06,0005.34
2022-08-17 12:08:00,,0833.0,5.00,0.00,29.7,28.5,00.0,38.6,31.5,31.1,0000.0,0010.25,0006.10,0005.39
2022-08-17 12:09:00,,0833.1,4.99,0.00,29.7,28.5,00.0,38.6,31.4,31.2,0000.0,0010.11,0006.13,0005.43
2022-08-17 12:10:00,,0833.0,5.00,0.00,29.7,28.5,00.0,38.6,31.4,31.3,0000.0,0010.02,0006.18,0005.47
2022-08-17 12:11:00,,0833.1,5.00,0.00,29.7,28.5,00.0,38.6,31.5,31.5,0000.0,0010.06,0006.20,0005.49
2022-08-17 12:12:00,,0833.1,5.01,0.00,29.7,28.5,00.0,38.6,31.4,31.7,0000.0,0010.67,0006.23,0005.52
2022-08-17 12:13:00,,0833.1,5.00,0.00,29.6,28.5,00.0,38.6,31.4,32.1,0000.0,0011.28,0006.25,0005.54
2022-08-17 12:14:00,,0833.1,4.99,0.00,29.6,28.5,00.0,38.6,31.4,32.0,0000.0,0011.65,0006.28,0005.56
2022-08-17 12:15:00,,0833.1,4.99,0.00,29.6,28.5,00.0,38.5,31.4,31.7,0000.0,0011.72,0006.28,0005.57
2022-08-17 12:16:00,,0833.2,5.00,0.00,29.6,28.5,00.0,38.5,31.4,31.6,0000.0,0011.41,0006.24,0005.54
2022-08-17 12:17:00,,0833.2,5.00,0.00,29.6,28.5,00.0,38.5,31.4,31.5,0000.0,0011.23,0006.19,0005.49
2022-08-17 12:18:00,,0833.2,5.00,0.00,29.6,28.5,00.0,38.5,31.4,31.4,0000.0,0011.06,0006.12,0005.46
2022-08-17 12:19:00,,0833.2,5.00,0.00,29.6,28.5,00.0,38.5,31.4,31.3,0000.0,0010.87,0006.09,0005.43
2022-08-17 12:20:00,,0833.2,5.01,0.00,29.6,28.5,00.0,38.5,31.4,31.3,0000.0,0010.86,0006.10,0005.45
2022-08-17 12:21:00,,0833.2,4.99,0.00,29.6,28.5,00.0,38.5,31.4,31.3,0000.0,0010.82,0006.07,0005.46
2022-08-17 12:22:00,,0833.1,5.01,0.00,29.6,28.4,00.0,38.5,31.4,31.3,0000.0,0010.83,0006.08,0005.48
2022-08-17 12:23:00,,0833.2,4.99,0.00,29.6,28.4,00.0,38.5,31.4,31.3,0000.0,0010.77,0006.09,0005.49
2022-08-17 12:24:00,,0833.2,5.00,0.00,29.6,28.4,00.0,38.5,31.4,31.4,0000.0,0010.90,0006.15,0005.53
2022-08-17 12:25:00,,0833.1,5.01,0.00,29.6,28.5,00.0,38.5,31.3,31.5,0000.0,0010.89,0006.20,0005.56
2022-08-17 12:26:00,,0833.2,4.99,0.00,29.6,28.5,00.0,38.5,31.3,31.6,0000.0,0011.51,0006.27,0005.60
2022-08-17 12:27:00,,0833.1,5.00,0.00,29.6,28.4,00.0,38.5,31.3,31.5,0000.0,0011.61,0006.33,0005.64
2022-08-17 12:28:00,,0833.2,5.00,0.00,29.6,28.4,00.0,38.5,31.4,31.6,0000.0,0012.16,0006.38,0005.69
2022-08-17 12:29:00,,0833.2,5.01,0.00,29.6,28.4,00.0,38.5,31.3,31.6,0000.0,0012.47,0006.43,0005.73
2022-08-17 12:30:00,,0833.2,5.00,0.00,29.6,28.4,00.0,38.5,31.3,31.7,0000.0,0012.63,0006.48,0005.78
2022-08-17 12:31:00,,0833.2,5.00,0.00,29.6,28.4,00.0,38.5,31.3,31.7,0000.0,0012.64,0006.52,0005.82
2022-08-17 12:32:00,,0833.1,5.00,0.00,29.6,28.4,00.0,38.5,31.4,31.7,0000.0,0012.89,0006.58,0005.86
2022-08-17 12:33:00,,0833.2,4.99,0.00,29.6,28.4,00.0,38.4,31.3,31.7,0000.0,0012.93,0006.58,0005.88
2022-08-17 12:34:00,,0833.2,5.00,0.00,29.5,28.4,00.0,38.4,31.3,31.7,0000.0,0012.55,0006.62,0005.91
2022-08-17 12:35:00,,0833.3,5.01,0.00,29.6,28.5,00.0,38.4,31.3,31.7,0000.0,0012.12,0006.63,0005.94
2022-08-17 12:36:00,,0833.3,5.00,0.00,29.5,28.5,00.0,38.4,31.3,31.8,0000.0,0012.13,0006.61,0005.95
2022-08-17 12:37:00,,0833.3,5.00,0.00,29.6,28.4,00.0,38.4,31.3,31.7,0000.0,0011.83,0006.59,0005.97
2022-08-17 12:38:00,,0833.3,5.00,0.00,29.6,28.4,00.0,38.4,31.4,31.7,0000.0,0011.96,0006.57,0005.97
2022-08-17 12:39:00,,0833.3,5.00,0.00,29.6,28.4,00.0,38.4,31.4,31.6,0000.0,0011.75,0006.56,0005.96
2022-08-17 12:40:00,,0833.4,4.99,0.00,29.6,28.4,00.0,38.4,31.4,31.5,0000.0,0011.45,0006.56,0005.96
2022-08-17 12:41:00,,0833.4,5.00,0.00,29.6,28.4,00.0,38.4,31.3,31.6,0000.0,0011.53,0006.51,0005.93
2022-08-17 12:42:00,,0833.4,5.00,0.00,29.6,28.4,00.0,38.4,31.3,32.2,0000.0,0011.42,0006.49,0005.92
2022-08-17 12:43:00,,0833.4,5.01,0.00,29.6,28.4,00.0,38.4,31.3,32.3,0000.0,0011.14,0006.43,0005.91
2022-08-17 12:44:00,,0833.4,4.99,0.00,29.6,28.5,00.0,38.4,31.4,31.7,0000.0,0011.09,0006.43,0005.90
2022-08-17 12:45:00,,0833.5,5.01,0.00,29.6,28.5,00.0,38.4,31.4,31.6,0000.0,0011.26,0006.42,0005.88
2022-08-17 12:46:00,,0833.4,5.00,0.00,29.6,28.5,00.0,38.4,31.4,31.6,0000.0,0011.23,0006.40,0005.86
2022-08-17 12:47:00,,0833.4,4.99,0.00,29.6,28.5,00.0,38.4,31.4,31.5,0000.0,0011.20,0006.41,0005.86
2022-08-17 12:48:00,,0833.4,5.01,0.00,29.6,28.5,00.0,38.4,31.4,31.5,0000.0,0010.86,0006.43,0005.85
2022-08-17 12:49:00,,0833.4,5.00,0.00,29.6,28.5,00.0,38.5,31.4,31.6,0000.0,0010.74,0006.45,0005.85
2022-08-17 12:50:00,,0833.4,4.99,0.00,29.6,28.5,00.0,38.5,31.4,31.6,0000.0,0010.89,0006.45,0005.83
2022-08-17 12:51:00,,0833.4,5.00,0.00,29.6,28.5,00.0,38.5,31.5,31.4,0000.0,0011.13,0006.45,0005.83
2022-08-17 12:52:00,,0833.4,5.00,0.00,29.7,28.6,00.0,38.5,31.5,31.4,0000.0,0011.04,0006.47,0005.82
2022-08-17 12:53:00,,0833.4,5.01,0.00,29.7,28.6,00.0,38.5,31.5,31.4,0000.0,0011.04,0006.45,0005.80
2022-08-17 12:54:00,,0833.4,4.99,0.00,29.7,28.6,00.0,38.5,31.5,31.4,0000.0,0011.12,0006.44,0005.76
2022-08-17 12:55:00,,0833.4,5.00,0.00,29.7,28.6,00.0,38.5,31.5,31.4,0000.0,0011.42,0006.47,0005.74
2022-08-17 12:56:00,,0833.4,5.01,0.00,29.7,28.7,00.0,38.5,31.6,31.5,0000.0,0011.59,0006.49,0005.72
2022-08-17 12:57:00,,0833.4,4.99,0.00,29.7,28.7,00.0,38.5,31.6,31.5,0000.0,0011.39,0006.48,0005.72
2022-08-17 12:58:00,,0833.4,5.00,0.00,29.7,28.7,00.0,38.5,31.6,31.5,0000.0,0011.39,0006.45,0005.71
2022-08-17 12:59:00,,0833.4,4.99,0.00,29.8,28.7,00.0,38.5,31.6,31.6,0000.0,0011.26,0006.46,0005.70
